Preview of NWS' New Version of Forecast
This preview is not operational and should not be used for support decisions.

Regional Weather Roundup (RWR)

Issued by National Weather Service (NWS)

                            
000
ASUS43 KMKX 201120
RWRWI 

WISCONSIN REGIONAL WEATHER ROUNDUP
NATIONAL WEATHER SERVICE MILWAUKEE/SULLIVAN WI
600 AM CDT SAT APR 20 2019

NOTE: "FAIR" INDICATES FEW OR NO CLOUDS BELOW 12,000 FEET WITH NO
SIGNIFICANT WEATHER AND/OR OBSTRUCTIONS TO VISIBILITY.

WIZ001-002-006>008-014>016-023>028-201200-
NORTHWEST WISCONSIN
  
CITY           SKY/WX    TMP DP  RH WIND       PRES   REMARKS
SUPERIOR ARPT  FAIR      30  28  93 CALM      29.83F                  
ASHLAND        FAIR      30  24  78 S6        29.86F WCI  24          
HAYWARD        FAIR      28  25  88 CALM      29.88S                  
SIREN          FAIR      32  29  87 S5        29.86S WCI  27          
CUMBERLAND     FAIR      32  27  80 CALM      29.89R                  
RICE LAKE      FAIR      31  27  84 CALM      29.90S                  
CHETEK         FAIR      28  28  99 CALM      29.90R                  
LADYSMITH      FAIR      34  26  71 SE3       29.92R                  
EAU CLAIRE     FAIR      28  26  92 CALM      29.89S                  
MENOMONIE      FAIR     N/A N/A N/A CALM      29.89F                  
NEW RICHMOND   FAIR      35  29  78 S3        29.88S                  
OSCEOLA        FAIR      41  32  69 S6        29.91R                  
$$
 
WIZ003>005-009-010-017-018-201200-
NORTH CENTRAL WISCONSIN
  
CITY           SKY/WX    TMP DP  RH WIND       PRES   REMARKS
MANITOWISH WTR FAIR      31  21  64 CALM      29.90R                  
ARBOR VITAE    FAIR      32  26  79 CALM      29.90S                  
WOODRUFF       FAIR      32  26  79 CALM      29.90S                  
RHINELANDER    NOT AVBL                                               
EAGLE RIVER    FAIR      24  24 100 CALM      29.89F                  
LAND O LAKES   FAIR      23  22  96 CALM      29.92S                  
PHILLIPS       FAIR      31  21  65 CALM      29.90R                  
TOMAHAWK       FAIR      22  20  93 CALM      29.91F                  
MEDFORD        FAIR      32  21  64 S3        29.90S                  
MERRILL        FAIR      25  24  97 CALM      29.92F                  
$$
 
WIZ029-030-035-036-043>047-201200-
CENTRAL WISCONSIN
  
CITY           SKY/WX    TMP DP  RH WIND       PRES   REMARKS
WAUSAU         NOT AVBL                                               
MOSINEE        CLEAR     30  23  74 NW5       29.93R WCI  25          
MARSHFIELD     NOT AVBL                                               
STEVENS POINT  FAIR      26  25  95 CALM      29.94R                  
WAUPACA        FAIR      30  28  91 CALM      29.93F                  
WAUTOMA        NOT AVBL                                               
WISC RAPIDS    FAIR      27  22  81 CALM      29.93S                  
CAMP DOUGLAS   FAIR      23  23 100 CALM      29.92S                  
$$
 
WIZ011>013-019>022-031-037>040-048>050-201200-
NORTHEAST WISCONSIN
  
CITY           SKY/WX    TMP DP  RH WIND       PRES   REMARKS
ANTIGO         FAIR      28  28  99 CALM      29.92S                  
SHAWANO        FAIR      29  24  80 CALM      29.93S                  
OCONTO         FAIR      27  25  94 CALM      29.93R                  
STURGEON BAY   NOT AVBL                                               
GREEN BAY      FAIR      32  25  75 CALM      29.92F                  
MANITOWOC      FAIR      33  21  61 NW3       29.92S                  
APPLETON       CLEAR     34  16  47 NE8       29.90S WCI  27          
CLINTONVILLE   FAIR      29  25  82 CALM      29.93S                  
OSHKOSH        FAIR      33  23  66 N3        29.91S                  
$$
 
WIZ032>034-041-042-053>061-201200-
SOUTHWEST WISCONSIN
  
CITY           SKY/WX    TMP DP  RH WIND       PRES   REMARKS
LA CROSSE      FAIR      36  29  75 SE5       29.92S WCI  32          
SPARTA         FAIR      25  23  93 CALM      29.93S                  
VIROQUA        FAIR      44  23  42 CALM      29.92R                  
BOSCOBEL       FAIR      29  25  85 CALM      29.94R                  
PRAIRIE DU CHI FAIR      32  28  84 CALM      29.93S                  
PLATTEVILLE    FAIR      37  24  57 N6        29.91S WCI  33          
$$

WIZ056-057-062-063-064-067-068-201200-
SOUTH CENTRAL WISCONSIN
  
CITY           SKY/WX    TMP DP  RH WIND       PRES   REMARKS
REEDSBURG      FAIR      29  29 100 CALM      29.92S                  
BARABOO/DELLS  FAIR      28  24  84 CALM      29.92S                  
LONE ROCK      FAIR      29  25  85 CALM      29.93S                  
MINERAL POINT  FAIR      37  23  56 NE5       29.91S WCI  34          
MADISON        FAIR      28  25  88 NW3       29.91R                  
MIDDLETON      FAIR      31  28  88 W3        29.92R                  
WATERTOWN      FAIR      30  23  75 CALM      29.89S                  
MONROE         FAIR      37  20  50 MISG      29.89S                  
JANESVILLE     CLEAR     37  23  56 N5        29.88F WCI  34          
$$
 
WIZ051-052-058>065-066-070>072-201200-
SOUTHEAST WISCONSIN
  
CITY           SKY/WX    TMP DP  RH WIND       PRES   REMARKS
MILWAUKEE      FAIR      41  23  48 N16G24    29.87F                  
WAUKESHA       CLEAR     36  18  48 N5        29.89F WCI  32          
MILWAUKEE/TIMM FAIR      34  19  55 N3        29.89S                  
RACINE         FAIR      39  27  62 N16       29.88F WCI  30          
KENOSHA        FAIR      36  26  67 N7        29.85F WCI  30          
FOND DU LAC    FAIR      28  25  88 CALM      29.90F                  
SHEBOYGAN      FAIR      34  22  61 N7        29.90S WCI  28          
WEST BEND      FAIR      34  19  55 CALM      29.89F                  
JUNEAU         FAIR      33  26  73 CALM      29.91S                  
$$

LSZ147-162-201200-
LAKE SUPERIOR
  
STATION/POSITION TIME  TEMP    WIND        PRES    WAVE
                       AIR SEA DIR/SP/G            HT/PER
                 (UTC) (F)     (DEG/KT/KT) (MB)    (FT/S)
$$
 
LMZ867-665-643>646-201200-
LAKE MICHIGAN
  
STATION/POSITION TIME  TEMP    WIND        PRES    WAVE
                       AIR SEA DIR/SP/G            HT/PER
                 (UTC) (F)     (DEG/KT/KT) (MB)    (FT/S)
NORTHPORT PIER   1100   31     310/  1/  2 1013.5
KEWAUNEE LAKESHO 1054   34     310/  2/  4 1012.5R
SHEBOYGAN LAKESH 1100   40     350/ 14/ 15 1012.7F
MILWAUKEE LAKESH 1100   41                   N/A
KENOSHA   LAKESH 1100   42      10/ 20/ 23 1010.8
$$

TC  - TEMPERATURE IN CELSIUS
VSB - VISIBILITY IN STATUTE MILES
WCI - WIND CHILL INDEX
HX  - HEAT INDEX